• In Hungary
  • List of Countries
  • For 7 days
  • Water Temperature
  • Satellite Maps
  • Weather Map
  • News
  • Weather Widgets
  • user-avatar
    Login

    Hourly Weather Chechelnik

    Today, 22 September, Saturday

    Time Temperature Precipitation Wind Pressure Humidity
    00:00 +19°C° 0 mm 2 mps 743 mmHg 46%
    01:00 +19°C° 0 mm 2 mps 743 mmHg 47%
    02:00 +18°C° 0 mm 2 mps 742 mmHg 48%
    03:00 +18°C° 0 mm 2 mps 742 mmHg 49%
    04:00 +18°C° 0 mm 2 mps 742 mmHg 51%
    05:00 +17°C° 0 mm 2 mps 742 mmHg 53%
    06:00 +18°C° 0 mm 2 mps 742 mmHg 52%
    07:00 +19°C° 0 mm 3 mps 742 mmHg 51%
    08:00 +20°C° 0 mm 3 mps 742 mmHg 50%
    09:00 +22°C° 0 mm 4 mps 742 mmHg 45%
    10:00 +25°C° 0 mm 4 mps 742 mmHg 40%
    11:00 +27°C° 0 mm 5 mps 742 mmHg 34%
    12:00 +27°C° 0 mm 5 mps 742 mmHg 33%
    13:00 +28°C° 0 mm 5 mps 741 mmHg 32%
    14:00 +29°C° 0 mm 5 mps 741 mmHg 30%
    15:00 +28°C° 0 mm 4 mps 741 mmHg 34%
    16:00 +27°C° 0 mm 3 mps 740 mmHg 37%
    17:00 +27°C° 0 mm 2 mps 740 mmHg 40%
    18:00 +25°C° 0 mm 3 mps 740 mmHg 44%
    19:00 +22°C° 0 mm 3 mps 740 mmHg 49%
    20:00 +21°C° 0 mm 4 mps 741 mmHg 53%
    21:00 +19°C° 0.1 mm 5 mps 741 mmHg 60%
    22:00 +16°C° 0.1 mm 6 mps 741 mmHg 67%
    23:00 +13°C° 0.1 mm 8 mps 742 mmHg 73%

    Tomorrow, 23 September, Sunday

    Time Temperature Precipitation Wind Pressure Humidity
    00:00 +12°C° 0.3 mm 7 mps 742 mmHg 75%
    01:00 +13°C° 0.3 mm 6 mps 742 mmHg 77%
    02:00 +12°C° 0.3 mm 5 mps 743 mmHg 79%
    03:00 +10°C° 0 mm 5 mps 743 mmHg 79%
    04:00 +11°C° 0 mm 4 mps 743 mmHg 79%
    05:00 +10°C° 0 mm 4 mps 743 mmHg 79%
    06:00 +11°C° 0 mm 3 mps 744 mmHg 77%
    07:00 +11°C° 0 mm 3 mps 744 mmHg 75%
    08:00 +12°C° 0 mm 3 mps 744 mmHg 72%
    09:00 +14°C° 0 mm 3 mps 744 mmHg 63%
    10:00 +15°C° 0 mm 4 mps 744 mmHg 55%
    11:00 +18°C° 0 mm 4 mps 744 mmHg 46%
    12:00 +19°C° 0 mm 4 mps 744 mmHg 43%
    13:00 +20°C° 0 mm 4 mps 744 mmHg 40%
    14:00 +20°C° 0 mm 5 mps 744 mmHg 38%
    15:00 +20°C° 0 mm 4 mps 744 mmHg 40%
    16:00 +19°C° 0 mm 3 mps 743 mmHg 41%
    17:00 +19°C° 0 mm 3 mps 743 mmHg 43%
    18:00 +18°C° 0 mm 2 mps 743 mmHg 45%
    19:00 +18°C° 0 mm 1 mps 743 mmHg 48%
    20:00 +15°C° 0 mm 1 mps 743 mmHg 50%
    21:00 +15°C° 0 mm 1 mps 743 mmHg 50%
    22:00 +15°C° 0 mm 2 mps 743 mmHg 50%
    23:00 +14°C° 0 mm 3 mps 742 mmHg 50%

    Day after tomorrow, 24 September, Monday

    Time Temperature Precipitation Wind Pressure Humidity
    00:00 +14°C° 0 mm 4 mps 742 mmHg 48%
    01:00 +14°C° 0 mm 5 mps 741 mmHg 46%
    02:00 +14°C° 0 mm 5 mps 740 mmHg 44%
    03:00 +14°C° 0 mm 6 mps 739 mmHg 50%
    04:00 +14°C° 0 mm 7 mps 738 mmHg 55%
    05:00 +15°C° 0 mm 8 mps 738 mmHg 60%
    06:00 +15°C° 0.5 mm 8 mps 737 mmHg 65%
    07:00 +16°C° 0.5 mm 8 mps 737 mmHg 70%
    08:00 +16°C° 0.5 mm 9 mps 736 mmHg 74%
    09:00 +16°C° 2.8 mm 9 mps 736 mmHg 77%
    10:00 +17°C° 2.8 mm 8 mps 736 mmHg 80%
    11:00 +17°C° 2.8 mm 8 mps 735 mmHg 84%
    12:00 +16°C° 0.7 mm 8 mps 736 mmHg 81%
    13:00 +15°C° 0.7 mm 8 mps 736 mmHg 79%
    14:00 +15°C° 0.7 mm 8 mps 737 mmHg 76%
    15:00 +13°C° 0.1 mm 8 mps 738 mmHg 73%
    16:00 +12°C° 0.1 mm 8 mps 738 mmHg 69%
    17:00 +11°C° 0.1 mm 8 mps 739 mmHg 66%
    18:00 +11°C° 0 mm 8 mps 740 mmHg 67%
    19:00 +10°C° 0 mm 7 mps 740 mmHg 69%
    20:00 +10°C° 0 mm 7 mps 741 mmHg 70%
    21:00 +9°C° 0 mm 7 mps 741 mmHg 71%
    22:00 +9°C° 0 mm 7 mps 742 mmHg 71%
    23:00 +8°C° 0 mm 7 mps 742 mmHg 71%

    25 September, Tuesday

    Time Temperature Precipitation Wind Pressure Humidity
    00:00 +8°C° 0 mm 7 mps 742 mmHg 70%
    01:00 +8°C° 0 mm 7 mps 742 mmHg 68%
    02:00 +6°C° 0 mm 7 mps 742 mmHg 66%
    03:00 +6°C° 0 mm 7 mps 743 mmHg 67%
    04:00 +6°C° 0 mm 7 mps 743 mmHg 68%
    05:00 +5°C° 0 mm 7 mps 743 mmHg 69%
    06:00 +6°C° 0 mm 7 mps 743 mmHg 68%
    07:00 +7°C° 0 mm 8 mps 744 mmHg 68%
    08:00 +7°C° 0 mm 9 mps 744 mmHg 67%
    09:00 +7°C° 0.1 mm 9 mps 745 mmHg 67%
    10:00 +7°C° 0.1 mm 9 mps 745 mmHg 67%
    11:00 +7°C° 0.1 mm 9 mps 746 mmHg 67%
    12:00 +8°C° 0 mm 9 mps 746 mmHg 60%
    13:00 +10°C° 0 mm 9 mps 747 mmHg 54%
    14:00 +11°C° 0 mm 9 mps 747 mmHg 48%
    15:00 +11°C° 0 mm 8 mps 747 mmHg 48%
    16:00 +10°C° 0 mm 7 mps 748 mmHg 48%
    17:00 +10°C° 0 mm 7 mps 748 mmHg 49%
    18:00 +9°C° 0 mm 6 mps 749 mmHg 52%
    19:00 +8°C° 0 mm 5 mps 749 mmHg 56%
    20:00 +7°C° 0 mm 5 mps 750 mmHg 59%
    21:00 +6°C° 0 mm 5 mps 750 mmHg 62%
    22:00 +6°C° 0 mm 5 mps 750 mmHg 64%
    23:00 +6°C° 0 mm 5 mps 751 mmHg 66%

    26 September, Wednesday

    Time Temperature Precipitation Wind Pressure Humidity
    00:00 +5°C° 0 mm 5 mps 751 mmHg 67%
    01:00 +5°C° 0 mm 5 mps 752 mmHg 69%
    02:00 +5°C° 0 mm 5 mps 752 mmHg 70%
    03:00 +5°C° 0 mm 5 mps 752 mmHg 72%
    04:00 +3°C° 0 mm 5 mps 753 mmHg 74%
    05:00 +3°C° 0 mm 5 mps 753 mmHg 76%
    06:00 +3°C° 0 mm 5 mps 753 mmHg 73%
    07:00 +5°C° 0 mm 5 mps 754 mmHg 69%
    08:00 +5°C° 0 mm 6 mps 754 mmHg 66%
    09:00 +8°C° 0 mm 6 mps 754 mmHg 58%
    10:00 +9°C° 0 mm 5 mps 754 mmHg 50%
    11:00 +12°C° 0 mm 5 mps 754 mmHg 42%
    12:00 +12°C° 0 mm 5 mps 754 mmHg 42%
    13:00 +13°C° 0 mm 5 mps 754 mmHg 41%
    14:00 +14°C° 0 mm 5 mps 753 mmHg 40%
    15:00 +13°C° 0 mm 5 mps 753 mmHg 43%
    16:00 +13°C° 0 mm 4 mps 753 mmHg 45%
    17:00 +13°C° 0 mm 3 mps 752 mmHg 48%
    18:00 +11°C° 0 mm 3 mps 752 mmHg 50%
    19:00 +10°C° 0 mm 3 mps 752 mmHg 53%
    20:00 +9°C° 0 mm 3 mps 752 mmHg 56%
    21:00 +9°C° 0 mm 3 mps 752 mmHg 56%
    22:00 +8°C° 0 mm 2 mps 752 mmHg 57%
    23:00 +8°C° 0 mm 2 mps 752 mmHg 58%

    27 September, Thursday

    Time Temperature Precipitation Wind Pressure Humidity
    00:00 +8°C° 0 mm 3 mps 751 mmHg 58%
    01:00 +8°C° 0 mm 3 mps 751 mmHg 58%
    02:00 +8°C° 0 mm 3 mps 751 mmHg 59%
    03:00 +8°C° 0 mm 3 mps 750 mmHg 57%
    04:00 +7°C° 0 mm 4 mps 750 mmHg 55%
    05:00 +7°C° 0 mm 4 mps 749 mmHg 53%
    06:00 +8°C° 0 mm 4 mps 749 mmHg 51%
    07:00 +8°C° 0 mm 4 mps 749 mmHg 49%
    08:00 +10°C° 0 mm 4 mps 749 mmHg 47%
    09:00 +12°C° 0 mm 5 mps 749 mmHg 43%
    10:00 +14°C° 0 mm 5 mps 748 mmHg 38%
    11:00 +16°C° 0 mm 5 mps 748 mmHg 34%
    12:00 +17°C° 0 mm 5 mps 747 mmHg 32%
    13:00 +17°C° 0 mm 5 mps 747 mmHg 30%
    14:00 +19°C° 0 mm 5 mps 746 mmHg 28%
    15:00 +19°C° 0 mm 4 mps 746 mmHg 31%
    16:00 +18°C° 0 mm 4 mps 745 mmHg 33%
    17:00 +18°C° 0 mm 3 mps 745 mmHg 35%
    18:00 +17°C° 0 mm 3 mps 744 mmHg 35%
    19:00 +14°C° 0 mm 3 mps 744 mmHg 34%
    20:00 +13°C° 0 mm 3 mps 744 mmHg 34%
    21:00 +13°C° 0 mm 3 mps 744 mmHg 33%
    22:00 +13°C° 0 mm 3 mps 743 mmHg 33%
    23:00 +12°C° 0 mm 3 mps 743 mmHg 32%
    Show more